Regional Weather Roundup
Issued by NWS

Home | Current Version | Previous Version | Graphics & Text | Print | Product List | Glossary On
Versions: 1 2 3 4 5 6 7 8 9 10 11 12 13 14 15 16 17 18 19 20 21 22 23 24 25 26 27 28 29 30 31 32 33 34 35 36 37 38 39 40 41 42 43 44 45 46 47 48 49 50
000
ASUS43 KLSX 241007
RWRMO

WEATHER SUMMARY FOR MISSOURI
NATIONAL WEATHER SERVICE SPRINGFIELD MO
400 AM CST MON NOV 24 2014

NOTE: "FAIR" INDICATES FEW OR NO CLOUDS BELOW 12,000 FEET WITH NO
       SIGNIFICANT WEATHER AND/OR OBSTRUCTIONS TO VISIBILITY.
       CURRENT SKY AND/OR WEATHER CONDITIONS ARE NOT AVAILABLE FOR
       CHILLICOTHE AND FARMINGTON.

MOZ001>031-035>038-043-044-053-054-241100-
...NORTHERN AND WESTERN MISSOURI...

CITY           SKY/WX    TMP DP  RH WIND       PRES   REMARKS
KANSAS CTY INT CLOUDY    34  23  64 NW14G23   29.58R WCI  25
KANSAS C DTWN  CLOUDY    37  24  59 NW14G24   29.59R WCI  28
ST JOSEPH      CLOUDY    32  23  69 NW15      29.58R WCI  22
CHILLICOTHE      N/A     36  26  67 W15G29    29.51R WCI  27
KIRKSVILLE     CLOUDY    34  29  82 W17G28    29.42R WCI  23

$$
MOZ066>068-077>081-088>096-101>105-241100-
...SOUTHWEST MISSOURI...

CITY           SKY/WX    TMP DP  RH WIND       PRES   REMARKS
SPRINGFIELD    PTCLDY    39  32  76 W18G25    29.59R WCI  30
JOPLIN         PTCLDY    40  32  73 W16G26    29.69R

$$
MOZ032>034-039>042-045>050-055>058-069>072-241100-
...CENTRAL MISSOURI...

CITY           SKY/WX    TMP DP  RH WIND       PRES   REMARKS
COLUMBIA       CLOUDY    38  36  92 W13       29.46R WCI  30
JEFFERSON CITY CLOUDY    40  36  86 W10       29.48S
ROLLA          CLOUDY    36  34  92 W12       29.45S WCI  28
SEDALIA        CLOUDY    37  28  70 NW18G31   29.53R WCI  27
WHITEMAN AFB   PTCLDY    36  26  68 W21G28    29.55R WCI  24
WARRENSBURG    MOCLDY    34  27  75 W17G28    29.57R WCI  23
OSAGE BEACH    CLOUDY    41  36  81 W15G22    29.50S

$$
MOZ051-052-059>065-241100-
...EAST CENTRAL MISSOURI...

CITY           SKY/WX    TMP DP  RH WIND       PRES   REMARKS
ST LOUIS INTL  LGT RAIN  42  37  82 W23G32    29.36R
SPIRIT OF STL  LGT RAIN  38  34  85 W21G36    29.39R WCI  28
ST CHARLES     LGT RAIN  37  34  89 W26G37    29.36R WCI  25

$$
MOZ072>076-082>087-097>100-106>115-241100-
...SOUTH CENTRAL AND SOUTHEAST MISSOURI...

CITY           SKY/WX    TMP DP  RH WIND       PRES   REMARKS
CAPE GIRARDEAU CLOUDY    52  48  86 W29G37    29.36R
FARMINGTON     CLOUDY    43  36  75 NW25G31   29.41R
POPLAR BLUFF   CLOUDY    49  42  77 W21G29    29.44R
WEST PLAINS    CLOUDY    39  34  82 W12       29.56R

$$



USA.gov is the U.S. government's official web portal to all federal, state and local government web resources and services.